BCS3196 EDDP-ESSA

Flight info

Callsign BCS3196
Flight time N/A
Altitude 35000
Route PENEM1E/08R PENEM Z131 PENEK DCT DETNI DCT VIBAR/N0451F270 Z227 NILUG
Aircraft A306/H-SDE1FGHIRWXYZ/HB1

Departure

Time N/A
Airport Leipzig/Halle Airport (EDDP)

Arrival

Time 2026-05-06 20:21
Airport Stockholm-Arlanda Airport (ESSA)
Time Latitude Longitude Altitude Speed Heading
2026-05-06 19:41 56.93076 15.86348 35199 ft 467 kts 21°
2026-05-06 19:41 56.96036 15.88717 35201 ft 462 kts 21°
2026-05-06 19:41 57.01910 15.93425 35196 ft 461 kts 21°
2026-05-06 19:42 57.07788 15.98148 35200 ft 461 kts 21°
2026-05-06 19:42 57.12716 16.02123 35196 ft 462 kts 21°
2026-05-06 19:43 57.15625 16.04474 35074 ft 462 kts 21°
2026-05-06 19:43 57.18561 16.06852 35000 ft 462 kts 21°
2026-05-06 19:43 57.24447 16.11632 34998 ft 462 kts 21°
2026-05-06 19:44 57.30334 16.16430 34998 ft 463 kts 21°
2026-05-06 19:44 57.36230 16.21252 34999 ft 463 kts 21°
2026-05-06 19:45 57.42165 16.26122 34997 ft 464 kts 21°
2026-05-06 19:45 57.48058 16.30976 35003 ft 464 kts 21°
2026-05-06 19:46 57.53962 16.35856 35000 ft 464 kts 21°
2026-05-06 19:46 57.59660 16.41380 35006 ft 467 kts 29°
2026-05-06 19:47 57.65211 16.47676 35000 ft 467 kts 30°
2026-05-06 19:47 57.70696 16.54037 35003 ft 468 kts 30°
2026-05-06 19:48 57.76227 16.60498 35009 ft 468 kts 30°
2026-05-06 19:48 57.81715 16.66940 35005 ft 469 kts 30°
2026-05-06 19:49 57.87234 16.73443 35001 ft 469 kts 30°
2026-05-06 19:49 57.92805 16.80029 35005 ft 479 kts 30°
2026-05-06 19:50 57.98561 16.86860 35009 ft 491 kts 30°
2026-05-06 19:50 58.04373 16.93787 35000 ft 496 kts 30°
2026-05-06 19:51 58.09492 16.99912 34997 ft 496 kts 30°
2026-05-06 19:51 58.12405 17.03406 34880 ft 494 kts 30°
2026-05-06 19:51 58.15301 17.06888 34139 ft 495 kts 30°
2026-05-06 19:52 58.18223 17.10404 33159 ft 499 kts 30°
2026-05-06 19:52 58.21142 17.13928 32408 ft 497 kts 30°
2026-05-06 19:52 58.24054 17.17450 31780 ft 493 kts 30°
2026-05-06 19:52 58.26936 17.20942 31181 ft 489 kts 30°
2026-05-06 19:53 58.29800 17.24418 30436 ft 489 kts 30°
2026-05-06 19:53 58.32641 17.27875 29979 ft 481 kts 30°
2026-05-06 19:53 58.35453 17.31301 29301 ft 479 kts 30°
2026-05-06 19:53 58.38237 17.34700 28739 ft 473 kts 30°
2026-05-06 19:54 58.40994 17.38071 28179 ft 468 kts 30°
2026-05-06 19:54 58.43719 17.41411 27600 ft 464 kts 30°
2026-05-06 19:54 58.46428 17.44736 27091 ft 459 kts 30°
2026-05-06 19:54 58.49099 17.48021 26520 ft 456 kts 30°
2026-05-06 19:55 58.51754 17.51293 26051 ft 451 kts 30°
2026-05-06 19:55 58.54380 17.54534 25520 ft 448 kts 30°
2026-05-06 19:55 58.56979 17.57749 25028 ft 441 kts 30°
2026-05-06 19:55 58.59538 17.60920 24261 ft 436 kts 30°
2026-05-06 19:56 58.62076 17.64069 23589 ft 430 kts 30°
2026-05-06 19:56 58.64573 17.67173 22751 ft 425 kts 30°
2026-05-06 19:56 58.67022 17.70224 22030 ft 417 kts 30°
2026-05-06 19:56 58.69444 17.73246 21309 ft 411 kts 30°
2026-05-06 19:57 58.71821 17.76215 20535 ft 406 kts 30°
2026-05-06 19:57 58.74164 17.79149 19847 ft 399 kts 30°
2026-05-06 19:57 58.76472 17.82040 19195 ft 392 kts 30°
2026-05-06 19:57 58.78738 17.84886 18477 ft 387 kts 30°
2026-05-06 19:58 58.80983 17.87686 17788 ft 378 kts 29°
2026-05-06 19:58 58.83273 17.90090 16978 ft 372 kts 24°
2026-05-06 19:58 58.85571 17.92266 16375 ft 363 kts 23°
2026-05-06 19:58 58.87794 17.94349 16055 ft 346 kts 23°
2026-05-06 19:59 58.89933 17.96357 15782 ft 340 kts 23°
2026-05-06 19:59 58.92059 17.98356 15505 ft 340 kts 24°
2026-05-06 19:59 58.94175 18.00353 15218 ft 337 kts 24°
2026-05-06 19:59 58.96271 18.02338 14919 ft 334 kts 24°
2026-05-06 20:00 58.98354 18.04315 14634 ft 332 kts 24°
2026-05-06 20:00 59.00424 18.06281 14352 ft 330 kts 24°
2026-05-06 20:00 59.02478 18.08235 14076 ft 328 kts 24°
2026-05-06 20:00 59.04524 18.10186 13792 ft 326 kts 24°
2026-05-06 20:01 59.06502 18.12073 13500 ft 324 kts 24°
2026-05-06 20:01 59.08528 18.13986 13217 ft 322 kts 22°
2026-05-06 20:01 59.10648 18.15229 12948 ft 317 kts
2026-05-06 20:01 59.12836 18.15638 12698 ft 315 kts
2026-05-06 20:02 59.15021 18.15882 12424 ft 313 kts
2026-05-06 20:02 59.17189 18.16111 12147 ft 312 kts
2026-05-06 20:02 59.19350 18.16346 11880 ft 310 kts
2026-05-06 20:02 59.21504 18.16589 11617 ft 309 kts
2026-05-06 20:03 59.21891 18.16633 11572 ft 309 kts
2026-05-06 20:06 59.24013 18.16877 11303 ft 307 kts
2026-05-06 20:06 59.26147 18.17125 11050 ft 306 kts
2026-05-06 20:06 59.28265 18.17373 10783 ft 305 kts
2026-05-06 20:07 59.30364 18.17620 10585 ft 297 kts
2026-05-06 20:07 59.32395 18.17861 10370 ft 289 kts
2026-05-06 20:07 59.34286 18.18085 10135 ft 287 kts
2026-05-06 20:07 59.36302 18.18323 9823 ft 286 kts
2026-05-06 20:08 59.38257 18.18555 9527 ft 284 kts
2026-05-06 20:08 59.40229 18.18789 9288 ft 283 kts
2026-05-06 20:08 59.42191 18.19022 9046 ft 282 kts
2026-05-06 20:08 59.44144 18.19254 8809 ft 281 kts
2026-05-06 20:09 59.46089 18.19485 8561 ft 279 kts
2026-05-06 20:09 59.48028 18.19716 8328 ft 278 kts
2026-05-06 20:09 59.49954 18.19945 8087 ft 277 kts
2026-05-06 20:09 59.51877 18.20175 7824 ft 276 kts
2026-05-06 20:10 59.53788 18.20571 7573 ft 275 kts
2026-05-06 20:10 59.55670 18.21212 7368 ft 274 kts
2026-05-06 20:10 59.57546 18.21898 7131 ft 273 kts
2026-05-06 20:10 59.59405 18.22581 6902 ft 272 kts
2026-05-06 20:11 59.61268 18.23263 6665 ft 271 kts 10°
2026-05-06 20:11 59.63123 18.23942 6434 ft 270 kts 10°
2026-05-06 20:11 59.64965 18.24615 6190 ft 269 kts 10°
2026-05-06 20:11 59.66799 18.25287 5943 ft 268 kts 10°
2026-05-06 20:12 59.68633 18.25958 5731 ft 267 kts 10°
2026-05-06 20:12 59.70453 18.26625 5504 ft 266 kts 10°
2026-05-06 20:12 59.72272 18.27292 5153 ft 265 kts 10°
2026-05-06 20:12 59.74079 18.27955 4786 ft 263 kts 10°
2026-05-06 20:13 59.75872 18.28614 4274 ft 263 kts 10°
2026-05-06 20:13 59.77682 18.29279 3799 ft 266 kts 11°
2026-05-06 20:13 59.79505 18.29950 3392 ft 266 kts 11°
2026-05-06 20:13 59.81320 18.30540 3070 ft 264 kts
2026-05-06 20:14 59.83152 18.30465 2863 ft 263 kts 350°
2026-05-06 20:14 59.84834 18.29258 2705 ft 255 kts 326°
2026-05-06 20:14 59.86039 18.26788 2582 ft 248 kts 297°
2026-05-06 20:14 59.86464 18.23632 2487 ft 230 kts 266°
2026-05-06 20:15 59.86115 18.20658 2490 ft 218 kts 242°
2026-05-06 20:15 59.85359 18.18054 2496 ft 217 kts 235°
2026-05-06 20:15 59.84560 18.15585 2481 ft 206 kts 235°
2026-05-06 20:15 59.83802 18.13242 2511 ft 195 kts 235°
2026-05-06 20:16 59.83095 18.11028 2488 ft 186 kts 235°
2026-05-06 20:16 59.82408 18.08853 2491 ft 186 kts 235°
2026-05-06 20:16 59.81730 18.06671 2489 ft 186 kts 236°
2026-05-06 20:16 59.81056 18.04481 2491 ft 186 kts 236°
2026-05-06 20:17 59.80299 18.02485 2481 ft 182 kts 216°
2026-05-06 20:17 59.79209 18.01259 2496 ft 180 kts 200°
2026-05-06 20:17 59.78005 18.00646 2487 ft 177 kts 190°
2026-05-06 20:17 59.76830 18.00242 2464 ft 161 kts 189°
2026-05-06 20:18 59.75755 17.99854 2391 ft 154 kts 189°
2026-05-06 20:18 59.74735 17.99475 2170 ft 147 kts 189°
2026-05-06 20:18 59.73758 17.99118 1989 ft 140 kts 189°
2026-05-06 20:18 59.72824 17.98777 1801 ft 131 kts 189°
2026-05-06 20:19 59.71968 17.98465 1605 ft 122 kts 189°
2026-05-06 20:19 59.71136 17.98162 1429 ft 122 kts 189°
2026-05-06 20:19 59.70301 17.97858 1254 ft 122 kts 189°
2026-05-06 20:19 59.69470 17.97546 1078 ft 120 kts 189°
2026-05-06 20:20 59.68647 17.97244 972 ft 123 kts 188°
2026-05-06 20:20 59.67778 17.96961 764 ft 127 kts 190°
2026-05-06 20:20 59.66909 17.96612 576 ft 127 kts 189°
2026-05-06 20:20 59.66041 17.96306 383 ft 127 kts 188°
2026-05-06 20:21 59.65194 17.96011 237 ft 122 kts 187°
2026-05-06 20:21 59.64372 17.95701 120 ft 114 kts 187°
2026-05-06 20:21 59.63743 17.95479 121 ft 57 kts 189°
2026-05-06 20:21 59.63508 17.95384 126 ft 18 kts 198°
2026-05-06 20:22 59.63404 17.95290 124 ft 16 kts 211°
2026-05-06 20:22 59.63320 17.95168 130 ft 14 kts 218°
2026-05-06 20:22 59.63254 17.95060 125 ft 8 kts 227°
2026-05-06 20:22 59.63238 17.94973 127 ft 6 kts 271°
2026-05-06 20:23 59.63255 17.94915 129 ft 4 kts 317°
2026-05-06 20:23 59.63277 17.94901 127 ft 3 kts 353°
2026-05-06 20:23 59.63300 17.94907 125 ft 6 kts 11°
2026-05-06 20:23 59.63317 17.94913 125 ft 7 kts 11°
2026-05-06 20:24 59.63378 17.94936 125 ft 13 kts 11°
2026-05-06 20:24 59.63492 17.94977 121 ft 19 kts 10°
2026-05-06 20:24 59.63626 17.95026 120 ft 20 kts 11°
2026-05-06 20:24 59.63770 17.95078 115 ft 21 kts 10°
2026-05-06 20:25 59.63867 17.95113 114 ft 21 kts 10°
2026-05-06 20:25 59.64014 17.95166 113 ft 21 kts 10°
2026-05-06 20:25 59.64158 17.95218 110 ft 18 kts 11°
2026-05-06 20:25 59.64253 17.95234 111 ft 12 kts 355°
2026-05-06 20:26 59.64333 17.95170 111 ft 13 kts 324°
2026-05-06 20:26 59.64387 17.95033 110 ft 13 kts 296°
2026-05-06 20:26 59.64403 17.94859 109 ft 13 kts 268°
2026-05-06 20:26 59.64379 17.94697 109 ft 12 kts 242°
2026-05-06 20:27 59.64335 17.94557 109 ft 12 kts 237°
2026-05-06 20:27 59.64318 17.94505 107 ft 12 kts 237°
2026-05-06 20:27 59.64274 17.94369 109 ft 12 kts 238°
2026-05-06 20:27 59.64233 17.94237 110 ft 11 kts 238°
2026-05-06 20:28 59.64199 17.94129 111 ft 8 kts 238°
2026-05-06 20:28 59.64175 17.94053 111 ft 6 kts 237°
2026-05-06 20:28 59.64146 17.93965 112 ft 11 kts 237°
2026-05-06 20:28 59.64103 17.93832 114 ft 11 kts 237°
2026-05-06 20:29 59.64064 17.93712 114 ft 9 kts 238°
2026-05-06 20:29 59.64031 17.93608 115 ft 10 kts 238°
2026-05-06 20:29 59.63991 17.93452 116 ft 14 kts 255°
2026-05-06 20:29 59.63997 17.93269 116 ft 14 kts 285°
2026-05-06 20:30 59.64025 17.93152 115 ft 6 kts 297°
2026-05-06 20:30 59.64015 17.93032 114 ft 5 kts 216°
2026-05-06 20:30 59.63984 17.92998 113 ft 5 kts 210°
2026-05-06 20:31 59.63963 17.92973 114 ft 2 kts 210°
2026-05-06 20:31 59.63937 17.92946 114 ft 5 kts 208°
2026-05-06 20:31 59.63915 17.92923 115 ft 2 kts 206°
2026-05-06 20:31 59.63912 17.92921 116 ft 0 kts 206°